Weather History for Cincinnati, OH

Change the Weather History Date:

Wednesday, May 8, 2013

  Actual Average Record
Temperature  
Mean Temperature 64 °F -  
Max Temperature 79 °F 72 °F 88 °F (1949)
Min Temperature 48 °F 49 °F 34 °F (1960)
Degree Days  
Heating Degree Days 2    
Growing Degree Days 14 (Base 50)    
Moisture  
Dew Point 54 °F    
Average Humidity 90    
Maximum Humidity 100    
Minimum Humidity 44    
Precipitation  
Precipitation 0.14 in - - ()
Sea Level Pressure  
Sea Level Pressure 29.97 in    
Wind  
Wind Speed 1 mph (North)    
Max Wind Speed 12 mph    
Max Gust Speed 17 mph    
Visibility 4 miles    
Events Fog , Rain , Thunderstorm    
Averages and records for this station are not official NWS values.
T = Trace of Precipitation, MM = Missing Value Source: NWS Daily Summary

Daily Weather History Graph

Daily Weather History Graph

Search for Another Location

Airport:

Trip Planner

Search our weather history database for the weather conditions in past years. The results will help you decide how hot, cold, wet, or windy it might be!

Date:

Astronomy

May. 08, 2013 Rise Set
Actual Time 6:31 AM EDT 8:37 PM EDT
Civil Twilight 6:01 AM EDT 9:07 PM EDT
Nautical Twilight 5:25 AM EDT 9:43 PM EDT
Astronomical Twilight 4:46 AM EDT 10:22 PM EDT
Moon 5:38 AM EDT (5/8) 7:35 PM EDT (5/8)
Length of Visible Light 15h 05m
Length of Day
14h 06m
Waning Crescent, 2% of the Moon is Illuminated
May 8
Waning Crescent
May 9
New
May 18
First Quarter
May 25
Full
May 31
Last Quarter

Hourly Weather History & Observations

Time (EDT) Temp. Dew Point Humidity Pressure Visibility Wind Dir Wind Speed Gust Speed Precip Events Conditions
12:16 AM 57.2 °F 57.2 °F 100% 29.98 in 1.2 mi Calm Calm - N/A   Scattered Clouds
12:20 AM 57.2 °F 57.2 °F 100% 29.98 in 0.8 mi Calm Calm - N/A   Mist
12:32 AM 57.2 °F 57.2 °F 100% 29.98 in 1.2 mi Calm Calm - N/A   Partly Cloudy
12:48 AM 55.4 °F 55.4 °F 100% 29.97 in 0.2 mi Calm Calm - N/A Fog Fog
12:53 AM 55.0 °F 55.0 °F 100% 29.97 in 0.2 mi Calm Calm - N/A Fog Fog
1:53 AM 54.0 °F 54.0 °F 100% 29.96 in 0.2 mi Calm Calm - N/A Fog Fog
2:53 AM 53.1 °F 53.1 °F 100% 29.94 in 0.2 mi Calm Calm - N/A Fog Fog
3:51 AM 51.8 °F 51.8 °F 100% 29.94 in 0.5 mi Calm Calm - N/A Fog Fog
3:53 AM 51.1 °F 51.1 °F 100% 29.94 in 0.2 mi Calm Calm - N/A Fog Fog
4:11 AM 50.0 °F 50.0 °F 100% 29.95 in 1.0 mi Calm Calm - N/A   Mist
4:18 AM 51.8 °F 51.8 °F 100% 29.95 in 1.5 mi Calm Calm - N/A   Scattered Clouds
4:26 AM 51.8 °F 51.8 °F 100% 29.95 in 1.0 mi Calm Calm - N/A   Mist
4:35 AM 51.8 °F 51.8 °F 100% 29.95 in 0.2 mi Calm Calm - N/A Fog Fog
4:53 AM 51.1 °F 51.1 °F 100% 29.95 in 0.5 mi Calm Calm - N/A Fog Fog
5:04 AM 48.2 °F 48.2 °F 100% 29.95 in 0.2 mi Calm Calm - N/A Fog Fog
5:37 AM 48.2 °F 48.2 °F 100% 29.95 in 0.5 mi Calm Calm - N/A Fog Fog
5:45 AM 48.2 °F 48.2 °F 100% 29.95 in 1.2 mi Calm Calm - N/A   Scattered Clouds
5:51 AM 50.0 °F 50.0 °F 100% 29.96 in 0.8 mi Calm Calm - N/A   Mist
5:53 AM 50.0 °F 48.9 °F 96% 29.95 in 0.5 mi Calm Calm - N/A Fog Fog
6:13 AM 51.8 °F 51.8 °F 100% 29.95 in 1.0 mi Calm Calm - N/A   Mist
6:20 AM 50.0 °F 50.0 °F 100% 29.95 in 0.5 mi Calm Calm - N/A Fog Fog
6:27 AM 48.2 °F 48.2 °F 100% 29.95 in 0.2 mi Calm Calm - N/A Fog Fog
6:53 AM 48.9 °F 48.9 °F 100% 29.97 in 0.5 mi Calm Calm - N/A Fog Fog
7:21 AM 50.0 °F 50.0 °F 100% 29.97 in 4.0 mi Calm Calm - N/A Fog Patches of Fog
7:53 AM 53.1 °F 53.1 °F 100% 29.99 in 4.0 mi Calm Calm - N/A   Mostly Cloudy
8:53 AM 57.0 °F 57.0 °F 100% 30.00 in 7.0 mi Calm Calm - N/A   Mostly Cloudy
9:53 AM 61.0 °F 59.0 °F 93% 30.00 in 7.0 mi Calm Calm - N/A   Mostly Cloudy
10:53 AM 66.0 °F 57.9 °F 75% 30.00 in 10.0 mi Calm Calm - N/A   Clear
11:53 AM 70.0 °F 55.9 °F 61% 29.99 in 10.0 mi North 9.2 mph - N/A   Mostly Cloudy
12:53 PM 73.0 °F 57.9 °F 59% 29.99 in 10.0 mi WNW 9.2 mph - N/A   Scattered Clouds
1:53 PM 75.9 °F 57.0 °F 52% 29.96 in 10.0 mi North 9.2 mph - N/A   Partly Cloudy
2:53 PM 75.0 °F 57.0 °F 53% 29.96 in 10.0 mi North 10.4 mph - N/A   Mostly Cloudy
3:53 PM 77.0 °F 54.0 °F 45% 29.95 in 10.0 mi NNW 6.9 mph 17.3 mph N/A   Scattered Clouds
4:53 PM 79.0 °F 55.0 °F 44% 29.94 in 10.0 mi Variable 4.6 mph - N/A   Mostly Cloudy
5:53 PM 71.1 °F 54.0 °F 55% 29.96 in 10.0 mi NE 10.4 mph - N/A Thunderstorm Thunderstorm
6:33 PM 66.2 °F 60.8 °F 83% 29.97 in 10.0 mi Calm Calm - 0.06 in   Mostly Cloudy
6:53 PM 66.9 °F 61.0 °F 81% 29.96 in 10.0 mi Variable 3.5 mph - 0.06 in   Scattered Clouds
7:40 PM 64.4 °F 60.8 °F 88% 29.98 in 10.0 mi SSW 5.8 mph - N/A Thunderstorm Thunderstorm
7:53 PM 64.0 °F 61.0 °F 90% 30.01 in 10.0 mi NNE 11.5 mph - N/A Thunderstorm Thunderstorm
8:53 PM 61.0 °F 61.0 °F 100% 30.01 in 6.0 mi WSW 5.8 mph - 0.08 in Rain Light Rain
9:53 PM 61.0 °F 60.1 °F 97% 30.01 in 9.0 mi ENE 4.6 mph - 0.00 in   Overcast
10:53 PM 60.1 °F 59.0 °F 96% 30.02 in 7.0 mi Calm Calm - 0.00 in Rain Light Rain
11:53 PM 59.0 °F 59.0 °F 100% 30.01 in 4.0 mi Calm Calm - 0.00 in   Partly Cloudy